DOUGLAS Weather Reports


Display with metric or nautical units.
time (UTC)temp
F
wind
direction
speed
MPH
gust
MPH
rain 1hr
in
rain 24hr
in
rain mn
in
humidity
%
barometer
mb
20260505022003 51 192 1.0 6.0 0.00 0.00 0.00
20260505021003 52 195 1.0 9.0 0.00 0.00 0.00
20260505020003 52 200 2.0 7.0 0.00 0.00 0.00 98
20260505015002 52 135 0.0 8.0 0.00 0.00 0.00 98
20260505014003 53 220 2.0 11.0 0.00 0.00 0.00 98
20260505013003 53 212 2.0 8.0 0.00 0.00 0.00 95
20260505012003 53 234 2.0 12.0 0.00 0.00 0.00 94
20260505011003 56 234 1.0 7.0 0.00 0.00 0.00 88
20260505010004 57 237 3.0 12.0 0.00 0.00 0.00 84
20260505005002 57 183 1.0 6.0 0.00 0.00 0.00 85
20260505004003 58 148 1.0 5.0 0.00 0.00 0.00 82
20260505003003 58 210 1.0 11.0 0.00 0.00 0.00 84
20260505002003 57 202 3.0 9.0 0.00 0.00 0.00 83
20260505001003 58 192 2.0 9.0 0.00 0.00 0.00 81
20260505000004 58 246 2.0 10.0 0.00 0.00 0.00 81
20260504235002 58 192 3.0 11.0 0.00 0.00 0.00 83
20260504234002 59 249 2.0 8.0 0.00 0.00 0.00 81
20260504233003 59 241 2.0 8.0 0.00 0.00 0.00 79
20260504232003 58 203 3.0 14.0 0.00 0.00 0.00 82
20260504231003 59 207 2.0 10.0 0.00 0.00 0.00 80
20260504230004 60 156 2.0 12.0 0.00 0.00 0.00 78
20260504225003 60 206 3.0 11.0 0.00 0.00 0.00 78
20260504224002 61 210 4.0 9.0 0.00 0.00 0.00 77
20260504223003 63 166 1.0 8.0 0.00 0.00 0.00 73
20260504222003 63 256 2.0 6.0 0.00 0.00 0.00 73
20260504221003 62 224 1.0 10.0 0.00 0.00 0.00 74
20260504220004 63 157 1.0 9.0 0.00 0.00 0.00 72
20260504215003 63 195 1.0 7.0 0.00 0.00 0.00 71
20260504214003 62 223 2.0 8.0 0.00 0.00 0.00 74
20260504213003 64 231 1.0 9.0 0.00 0.00 0.00 71
20260504212003 63 148 2.0 9.0 0.00 0.00 0.00 73
20260504211003 64 135 2.0 7.0 0.00 0.00 0.00 69
20260504210004 64 244 2.0 6.0 0.00 0.00 0.00 71
20260504205003 65 101 1.0 7.0 0.00 0.00 0.00 70
20260504204004 63 132 2.0 9.0 0.00 0.00 0.00 72
20260504203003 63 252 3.0 5.0 0.00 0.00 0.00 73
20260504202002 62 229 2.0 6.0 0.00 0.00 0.00 73
20260504201002 63 206 1.0 5.0 0.00 0.00 0.00 71
20260504200003 62 158 1.0 4.0 0.00 0.00 0.00 73
20260504195003 62 157 0.0 7.0 0.00 0.00 0.00 74
20260504194003 60 269 4.0 10.0 0.00 0.00 0.00 79
20260504193003 60 259 3.0 10.0 0.00 0.00 0.00 79
20260504192003 60 268 2.0 8.0 0.00 0.00 0.00 80
20260504191003 59 256 3.0 7.0 0.00 0.00 0.00 79
20260504190003 60 107 2.0 7.0 0.00 0.00 0.00 79
20260504185002 58 250 2.0 7.0 0.00 0.00 0.00 86
20260504184003 58 191 0.0 7.0 0.00 0.00 0.00 87
20260504183003 56 247 2.0 10.0 0.00 0.00 0.00 89
20260504182003 55 244 1.0 6.0 0.00 0.00 0.00 92
20260504181003 54 227 2.0 5.0 0.00 0.00 0.00 95
20260504180003 53 259 1.0 4.0 0.00 0.00 0.00 97
20260504175003 53 105 0.0 6.0 0.00 0.00 0.00
20260504174003 52 236 2.0 6.0 0.00 0.00 0.00
20260504173003 51 239 3.0 8.0 0.00 0.00 0.00
20260504172003 51 254 1.0 6.0 0.00 0.00 0.00
20260504171003 51 244 1.0 6.0 0.00 0.00 0.00
20260504151003 49 224 0.0 4.0 0.00 0.00 0.00 100
20260504141003 49 231 2.0 8.0 0.00 0.00 0.00
20260504082003 51 261 3.0 11.0 0.00 0.00 0.00
20260504081002 51 282 2.0 6.0 0.00 0.00 0.00
20260504050003 65 261 2.0 3.0 0.00 0.00 0.00 65
20260504045003 66 264 1.0 2.0 0.00 0.00 0.00 61
20260504044003 67 245 0.0 3.0 0.00 0.00 0.00 60
20260504043004 68 242 1.0 4.0 0.00 0.00 0.00 50
20260504042002 68 249 2.0 6.0 0.00 0.00 0.00 54
20260504041002 68 247 3.0 7.0 0.00 0.00 0.00 55
20260504040003 70 262 2.0 5.0 0.00 0.00 0.00 51
20260504035003 70 273 3.0 5.0 0.00 0.00 0.00 49
20260504034003 71 292 2.0 5.0 0.00 0.00 0.00 47
20260504033008 72 290 1.0 4.0 0.00 0.00 0.00 45
20260504032003 73 301 2.0 6.0 0.00 0.00 0.00 44
20260504031002 72 309 3.0 6.0 0.00 0.00 0.00 47
20260504030003 73 304 3.0 7.0 0.00 0.00 0.00 42
20260504025002 73 305 3.0 6.0 0.00 0.00 0.00 41
20260504024003 74 292 3.0 6.0 0.00 0.00 0.00 40
20260504023003 75 307 2.0 7.0 0.00 0.00 0.00 39